Miscellaneous Local Product
Issued by NWS North Platte, NE

Home | Current Version | Previous Version | Graphics & Text | Print | Product List | Glossary On
Versions: 1 2 3 4 5 6 7 8 9 10 11 12 13 14 15 16 17 18 19 20 21 22 23 24 25 26 27 28 29 30 31 32 33 34 35 36 37 38 39 40 41 42 43 44 45 46 47 48 49 50
000
AXUS43 KLBF 221110
MISLBF


WESTERN AND NORTH CENTRAL NEBRASKA HOURLY WEATHER ROUNDUP
NATIONAL WEATHER SERVICE NORTH PLATTE NE
600 AM CDT TUE MAY 22 2018

NOTE: "FAIR" INDICATES FEW OR NO CLOUDS BELOW 12,000 FEET WITH NO
SIGNIFICANT WEATHER AND/OR OBSTRUCTIONS TO VISIBILITY.

NOTE: STATIONS NOT REPORTING VARIABLES SUCH AS SKY/WEATHER OR
PRESSURE ARE PROVIDED BY RAWS AND APRS NETWORKS AND ARE NOT UNDER
NATIONAL WEATHER SERVICE QUALITY CONTROL.

...OBSERVATIONS IN AND NEAR THE EASTERN PANHANDLE OF NEBRASKA...

CITY           SKY/WX    TMP DP  RH WIND       PRES   REMARKS
PINE RIDGE     CLEAR     50  49  96 NE3       29.94R
GORDON         FAIR      46  45  95 NW6       29.95R
CHADRON        CLEAR     49  48  97 CALM      29.93R
ALLIANCE       CLEAR     46  46 100 S3        29.96R
SIDNEY         FOG       50  50 100 E3        29.96S VSB 1/4
CRESCENT LAKE    N/A     55  54  98 CALM        N/A
$$

...OBSERVATIONS IN NORTHERN NEBRASKA AND FAR SOUTHERN SOUTH DAKOTA...

CITY           SKY/WX    TMP DP  RH WIND       PRES   REMARKS
WINNER         MOCLDY    63  56  78 SE9       29.92R
VALENTINE      CLEAR     55  54  96 E5        29.94R FOG
AINSWORTH      CLEAR     55  55  99 CALM      29.94S
O`NEILL        CLEAR     64  58  80 E8        29.95R
THEDFORD       FOG       53  53  98 CALM      29.95R VSB 1/4
BROKEN BOW     CLEAR     57  56  96 SE5       29.92R
ORD            CLEAR     60  57  89 SE6       29.92R
ALBION         CLOUDY    60  58  91 SE10      29.94F
VALENTINE NWR    N/A     54  53  98 CALM        N/A
HALSEY           N/A     56  56 100 CALM        N/A
BUTTE            N/A     59  55  87 E7          N/A
CHAMBERS         N/A     59  56  89 CALM        N/A
EWING            N/A     60  56  88 E3          N/A
$$

...OBSERVATIONS IN SOUTHWEST NEBRASKA AND FAR NORTHEAST COLORADO...

CITY           SKY/WX    TMP DP  RH WIND       PRES   REMARKS
WRAY           FAIR      52  45  76 W5        29.95R
HOLYOKE        FAIR      54  52  94 CALM      29.95R
IMPERIAL       MOCLDY    53  50  89 SW6       29.93R
OGALLALA       CLEAR     53  53  98 CALM      29.93R FOG
NORTH PLATTE   PTCLDY    54  54 100 SE7       29.92R FOG
MCCOOK         MOCLDY    59  56  89 SW5       29.93R
LEXINGTON      PTCLDY    61  58  91 S10       29.92S
STAPLETON        N/A     55  53  94 CALM        N/A
GOTHENBURG       N/A     58  54  88 CALM        N/A
CALLAWAY         N/A     58  56  94 SE7         N/A
$$

...OBSERVATIONS IN CENTRAL LINCOLN COUNTY AREA...

CITY           SKY/WX    TMP DP  RH WIND       PRES   REMARKS
N.P. AIRPORT   PTCLDY    54  54 100 SE7       29.92R FOG
N.P. DOWNTOWN    N/A     57  56  96 CALM        N/A
N.P. SOUTHEAST   N/A     55  53  95 CALM        N/A
$$

...OBSERVATIONS ACROSS THE ROCKIES AND WESTERN HIGH PLAINS...

CITY           SKY/WX    TMP DP  RH WIND       PRES   REMARKS
RAPID CITY     PTCLDY    50  48  93 NW7       29.92R
SCOTTSBLUFF    MOCLDY    52  52 100 S6        29.97R
CHEYENNE       MOCLDY    47  45  93 W6        30.04R
DENVER         PTCLDY    49  42  77 SW7       29.98S
BERTHOUD PASS  FAIR      32  21  64 E9G16     30.34S WCI  24
COPPER MTN     CLEAR     45  21  39 SE10      30.31F
MONARCH PASS   PTCLDY    37  25  60 MISG      30.41F
ASPEN          CLEAR     43  29  57 SW8       30.07S
STEAMBOAT      FAIR      42  33  70 CALM      30.03S
LARAMIE        PTCLDY    43  41  93 S9        30.07R
CASPER         CLEAR     44  44 100 NW9       30.00R
$$

...OBSERVATIONS ACROSS THE NORTHERN PLAINS...

CITY           SKY/WX    TMP DP  RH WIND       PRES   REMARKS
BISMARCK       PTCLDY    49  49 100 E5        29.94R FOG
FARGO          FAIR      54  53  97 SE6       29.97F FOG
PIERRE         MOCLDY    55  54  96 E8        29.90F
SIOUX FALLS    FOG       49  49 100 NE5       30.00S VSB 1/8
$$

...OBSERVATIONS ACROSS THE CENTRAL AND SOUTHERN PLAINS...

CITY           SKY/WX    TMP DP  RH WIND       PRES   REMARKS
OMAHA          CLOUDY    61  57  87 SE6       29.99R
GRAND ISLAND   CLEAR     63  58  83 S14       29.95R
KANSAS CITY    CLOUDY    57  55  93 S6        30.03R
WICHITA        MOCLDY    64  62  93 S9        30.01R
DODGE CITY     CLEAR     60  57  89 SE12      30.00S
OKLAHOMA CITY  CLOUDY    63  63 100 CALM      30.02R
DALLAS         PTCLDY    72  68  87 CALM      29.99S
AMARILLO       CLOUDY    60  54  80 W14       30.07F
$$




USA.gov is the U.S. government's official web portal to all federal, state and local government web resources and services.